Meath Environmental Platform

Observations

Time Sensor AQI SAQ Temp °C Hum % Pres Pa CO μg/m³ H₂S μg/m³ NO μg/m³ NO₂ μg/m³ O₃ μg/m³ SO₂ μg/m³ CO₂e PPM VOC PPM PM1 μg/m³ PM2.5 μg/m³ PM4 μg/m³ PM10 μg/m³ TPS µm
Tuesday 11 August 2026
13:43 Trim Market St 2 39.1 19 66,963 0 0 0.22 11.43 65.5 4.34 0 3.24 3.56
13:42 Trim Patrick St 2 32.4 27 69,391 0 0 0.73 5.29 36.16 13.44 2 7.86 8.64
13:41 Trim Patrick St 2 32.3 26 69,381 0 0 0.84 13.01 89.42 17.02 2 8.76 9.64
13:41 Trim Market St 2 39 20 66,953 0 0 0.16 14.28 71.98 4.37 0.71 3.72 4.09
13:40 Trim Patrick St 2 32.2 26 69,399 0 0 0.85 7.2 57.09 14.24 2 8.75 9.62
13:39 Trim Patrick St 2 32.2 27 69,391 0 0 0.81 13.18 128.84 17.46 2.86 9.48 10.43
13:39 Trim Market St 2 38.9 20 66,932 0 2.8 0.2 16.24 73.78 3.96 0 3.17 3.49
13:38 Trim Patrick St 2 32.2 29 69,379 0 0 0.81 10.91 63.85 15.77 2 7.74 8.52
13:38 Trim Market St 2 38.9 20 66,888 0 3.67 0.19 24.21 66.49 2.64 0 3.72 4.09
13:37 Trim Patrick St 2 32.2 29 69,367 0 0 0.82 11.56 24.75 15.81 2 7.73 8.5
13:36 Trim Patrick St 2 32.1 30 69,381 0 11.49 0.84 14.71 98.12 18.08 2 7.68 8.45
13:35 Trim Patrick St 2 32 29 69,395 0 5.21 0.94 31.79 87.62 15.69 2.86 8.55 9.4
13:34 Trim Patrick St 2 32 30 69,414 0 2.65 0.88 14.81 76.29 16.69 2 7.65 8.41
13:33 Trim Patrick St 2 31.8 31 69,385 0 7.97 0.85 14.61 103 18.08 2.86 8.42 9.26
13:32 Trim Patrick St 2 31.7 29 69,373 0 5.99 1.01 16.05 79.72 16.28 2.86 8.53 9.38
13:31 Trim Patrick St 2 31.6 29 69,361 0 0.36 0.98 17.16 88.89 15.64 2 7.71 8.48
13:30 Trim Patrick St 2 31.5 30 69,345 0 6.76 0.97 14.57 65.3 16.34 2.86 9.29 10.21
13:30 Trim Market St 2 38.2 21 66,886 0 17.8 0.1 16.14 92.74 4.7 0 3.7 4.07
13:29 Trim Patrick St 2 31.3 30 69,349 0 22.7 0.96 31.08 95.84 18.9 2 8.45 9.3
13:29 Trim Market St 2 38.2 21 66,867 0 13.68 0.09 18.15 75.56 4.54 0.71 4.26 4.68